JBU2219 KEWR-TNCA

Flight info

Callsign JBU2219
Flight time N/A
Altitude 34000
Route ELVAE DCT NECCK DCT WHITE Q409 CRPLR DCT ECG/N0452F350 AR8 OXANA/M078F350 L452 LNHOM/N0451F370 L452 SLUKA/N0458F360 DCT SEKAR UL450 BEROX BEROX2A
Aircraft A320/M-SDE3FGHIRWY/LB1

Departure

Time 2026-04-30 20:48
Airport Newark Liberty International Airport (KEWR)

Arrival

Time N/A
Airport Queen Beatrix International Airport (TNCA)
Time Latitude Longitude Altitude Speed Heading
2026-04-30 19:55 40.68569 -74.18004 20 ft 0 kts 38°
2026-04-30 20:28 40.68558 -74.18015 19 ft 3 kts 36°
2026-04-30 20:28 40.68523 -74.18045 22 ft 3 kts 30°
2026-04-30 20:29 40.68487 -74.18071 20 ft 2 kts 28°
2026-04-30 20:30 40.68473 -74.18131 19 ft 3 kts 92°
2026-04-30 20:30 40.68474 -74.18154 19 ft 0 kts 92°
2026-04-30 20:35 40.68474 -74.18152 19 ft 0 kts 92°
2026-04-30 20:36 40.68473 -74.18150 19 ft 0 kts 92°
2026-04-30 20:36 40.68473 -74.18146 19 ft 1 kts 93°
2026-04-30 20:36 40.68473 -74.18130 19 ft 1 kts 94°
2026-04-30 20:37 40.68472 -74.18118 19 ft 2 kts 91°
2026-04-30 20:37 40.68472 -74.18098 19 ft 2 kts 90°
2026-04-30 20:37 40.68472 -74.18077 19 ft 2 kts 89°
2026-04-30 20:37 40.68473 -74.18053 19 ft 3 kts 87°
2026-04-30 20:38 40.68474 -74.18024 19 ft 4 kts 87°
2026-04-30 20:38 40.68475 -74.18003 19 ft 0 kts 86°
2026-04-30 20:38 40.68475 -74.18001 19 ft 1 kts 86°
2026-04-30 20:39 40.68496 -74.17912 18 ft 6 kts 71°
2026-04-30 20:39 40.68505 -74.17877 21 ft 6 kts 68°
2026-04-30 20:39 40.68526 -74.17843 21 ft 4 kts 39°
2026-04-30 20:40 40.68584 -74.17796 20 ft 8 kts 33°
2026-04-30 20:40 40.68634 -74.17748 21 ft 12 kts 41°
2026-04-30 20:40 40.68634 -74.17657 23 ft 10 kts 114°
2026-04-30 20:41 40.68587 -74.17529 23 ft 8 kts 115°
2026-04-30 20:41 40.68566 -74.17455 24 ft 5 kts 81°
2026-04-30 20:41 40.68603 -74.17425 25 ft 8 kts 30°
2026-04-30 20:41 40.68647 -74.17394 28 ft 7 kts 28°
2026-04-30 20:42 40.68693 -74.17364 24 ft 9 kts 24°
2026-04-30 20:42 40.68791 -74.17308 23 ft 18 kts 25°
2026-04-30 20:42 40.69035 -74.17156 16 ft 21 kts 24°
2026-04-30 20:43 40.69165 -74.17073 18 ft 20 kts 27°
2026-04-30 20:43 40.69304 -74.16986 19 ft 24 kts 27°
2026-04-30 20:43 40.69442 -74.16895 21 ft 21 kts 26°
2026-04-30 20:44 40.69599 -74.16795 19 ft 0 kts 28°
2026-04-30 20:44 40.69604 -74.16792 19 ft 0 kts 28°
2026-04-30 20:44 40.69697 -74.16733 18 ft 10 kts 26°
2026-04-30 20:45 40.69864 -74.16627 15 ft 19 kts 25°
2026-04-30 20:45 40.69948 -74.16577 15 ft 13 kts 23°
2026-04-30 20:45 40.70019 -74.16532 15 ft 0 kts 26°
2026-04-30 20:46 40.70065 -74.16438 15 ft 11 kts 96°
2026-04-30 20:46 40.69999 -74.16384 14 ft 14 kts 198°
2026-04-30 20:47 40.69965 -74.16406 13 ft 1 kts 209°
2026-04-30 20:47 40.69792 -74.16510 17 ft 62 kts 204°
2026-04-30 20:48 40.68332 -74.17447 75 ft 157 kts 207°
2026-04-30 20:48 40.67366 -74.18020 688 ft 152 kts 206°
2026-04-30 20:48 40.66384 -74.18587 1275 ft 152 kts 206°
2026-04-30 20:48 40.65440 -74.19162 1807 ft 151 kts 208°
2026-04-30 20:49 40.64427 -74.19813 1892 ft 172 kts 209°
2026-04-30 20:49 40.63300 -74.20528 2134 ft 189 kts 208°
2026-04-30 20:49 40.62106 -74.21401 2314 ft 210 kts 213°
2026-04-30 20:50 40.59350 -74.23685 2867 ft 256 kts 215°
2026-04-30 20:50 40.57828 -74.24959 3572 ft 262 kts 215°
2026-04-30 20:50 40.56244 -74.26158 4404 ft 265 kts 205°
2026-04-30 20:50 40.54441 -74.26751 5251 ft 271 kts 187°
2026-04-30 20:51 40.52551 -74.26559 6110 ft 277 kts 168°
2026-04-30 20:51 40.48885 -74.24786 7657 ft 282 kts 162°
2026-04-30 20:51 40.47041 -74.23868 8391 ft 285 kts 162°
2026-04-30 20:52 40.45201 -74.22955 9103 ft 288 kts 162°
2026-04-30 20:52 40.43321 -74.22021 9813 ft 291 kts 162°
2026-04-30 20:52 40.39352 -74.20057 10387 ft 326 kts 163°
2026-04-30 20:53 40.37164 -74.18982 10513 ft 346 kts 163°
2026-04-30 20:53 40.34869 -74.17851 10857 ft 357 kts 163°
2026-04-30 20:53 40.32481 -74.16967 11428 ft 357 kts 174°
2026-04-30 20:54 40.27580 -74.17058 12660 ft 352 kts 197°
2026-04-30 20:54 40.25226 -74.17768 13280 ft 353 kts 198°
2026-04-30 20:54 40.23470 -74.18302 13731 ft 355 kts 198°
2026-04-30 20:55 40.19518 -74.19494 14684 ft 357 kts 198°
2026-04-30 20:55 40.17087 -74.20222 15236 ft 359 kts 198°
2026-04-30 20:55 40.14644 -74.20955 15778 ft 361 kts 198°
2026-04-30 20:56 40.07025 -74.23230 16999 ft 365 kts 199°
2026-04-30 20:56 40.02103 -74.24783 17019 ft 361 kts 204°
2026-04-30 20:57 39.99827 -74.26088 17023 ft 355 kts 214°
2026-04-30 20:57 39.97792 -74.27888 17317 ft 354 kts 221°
2026-04-30 20:57 39.95813 -74.29806 17910 ft 356 kts 220°
2026-04-30 20:58 39.91795 -74.33631 18973 ft 360 kts 220°
2026-04-30 20:58 39.89760 -74.35553 19498 ft 362 kts 220°
2026-04-30 20:58 39.87740 -74.37460 20008 ft 365 kts 220°
2026-04-30 20:58 39.85684 -74.39405 20496 ft 367 kts 220°
2026-04-30 20:59 39.81583 -74.43407 21418 ft 369 kts 225°
2026-04-30 20:59 39.79773 -74.45760 21872 ft 369 kts 229°
2026-04-30 21:00 39.76172 -74.50569 22712 ft 373 kts 229°
2026-04-30 21:00 39.72539 -74.55383 23509 ft 377 kts 228°
2026-04-30 21:01 39.68837 -74.60268 24157 ft 381 kts 228°
2026-04-30 21:01 39.66976 -74.62730 24479 ft 383 kts 228°
2026-04-30 21:01 39.64454 -74.66062 24908 ft 385 kts 228°
2026-04-30 21:02 39.64043 -74.66605 24977 ft 386 kts 228°
2026-04-30 21:02 39.62973 -74.68018 25158 ft 387 kts 228°
2026-04-30 21:03 39.61273 -74.70265 25432 ft 388 kts 228°
2026-04-30 21:03 39.59373 -74.72769 25744 ft 390 kts 228°
2026-04-30 21:03 39.57466 -74.75281 26062 ft 392 kts 228°
2026-04-30 21:03 39.55547 -74.77805 26361 ft 394 kts 228°
2026-04-30 21:04 39.54861 -74.78706 26466 ft 395 kts 228°
2026-04-30 21:05 39.53918 -74.79944 26601 ft 395 kts 228°
2026-04-30 21:05 39.51985 -74.82477 27036 ft 394 kts 228°
2026-04-30 21:05 39.50061 -74.84994 27468 ft 393 kts 227°
2026-04-30 21:05 39.48140 -74.87503 27882 ft 392 kts 227°
2026-04-30 21:06 39.46226 -74.90008 28311 ft 391 kts 227°
2026-04-30 21:06 39.44321 -74.92505 28732 ft 390 kts 227°
2026-04-30 21:06 39.43992 -74.92937 28802 ft 390 kts 227°
2026-04-30 21:07 39.43199 -74.93973 28979 ft 389 kts 227°
2026-04-30 21:07 39.41295 -74.96461 29415 ft 388 kts 227°
2026-04-30 21:07 39.39397 -74.98939 29840 ft 387 kts 227°
2026-04-30 21:07 39.37502 -75.01411 30208 ft 387 kts 227°
2026-04-30 21:08 39.35609 -75.03881 30554 ft 386 kts 227°
2026-04-30 21:08 39.33719 -75.06344 30889 ft 386 kts 227°
2026-04-30 21:08 39.31828 -75.08805 31225 ft 386 kts 227°
2026-04-30 21:08 39.29939 -75.11257 31556 ft 386 kts 227°
2026-04-30 21:09 39.28032 -75.13625 31897 ft 386 kts 226°
2026-04-30 21:09 39.26051 -75.15967 32230 ft 386 kts 225°
2026-04-30 21:09 39.24045 -75.18276 32560 ft 386 kts 224°
2026-04-30 21:09 39.22035 -75.20571 32884 ft 386 kts 224°
2026-04-30 21:10 39.20025 -75.22872 33187 ft 386 kts 225°
2026-04-30 21:10 39.18023 -75.25182 33499 ft 386 kts 225°
2026-04-30 21:10 39.16028 -75.27502 33757 ft 387 kts 225°
2026-04-30 21:10 39.14057 -75.29809 33818 ft 391 kts 225°
2026-04-30 21:11 39.09971 -75.34590 33823 ft 402 kts 225°
2026-04-30 21:11 39.05802 -75.39435 33821 ft 405 kts 225°
2026-04-30 21:12 39.01051 -75.43387 33826 ft 414 kts 207°
2026-04-30 21:12 38.95350 -75.45011 33828 ft 427 kts 192°
2026-04-30 21:13 38.89483 -75.45811 33848 ft 427 kts 192°
2026-04-30 21:13 38.83576 -75.46625 33849 ft 427 kts 192°
2026-04-30 21:14 38.77667 -75.47445 33851 ft 427 kts 192°
2026-04-30 21:14 38.71758 -75.48259 33855 ft 427 kts 192°
2026-04-30 21:15 38.65886 -75.49056 33851 ft 428 kts 192°
2026-04-30 21:15 38.59963 -75.49852 33851 ft 428 kts 192°
2026-04-30 21:16 38.54039 -75.50651 33847 ft 428 kts 193°
2026-04-30 21:16 38.48109 -75.51462 33857 ft 429 kts 193°
2026-04-30 21:17 38.42220 -75.52265 33856 ft 429 kts 193°
2026-04-30 21:17 38.36314 -75.53243 33848 ft 423 kts 200°
2026-04-30 21:18 38.30975 -75.55988 33848 ft 409 kts 217°
2026-04-30 21:18 38.26297 -75.60049 33848 ft 407 kts 219°
2026-04-30 21:19 38.24369 -75.61722 33850 ft 407 kts 219°
2026-04-30 21:19 38.20663 -75.64926 33847 ft 408 kts 219°
2026-04-30 21:20 38.15968 -75.68990 33848 ft 408 kts 219°
2026-04-30 21:20 38.11332 -75.73018 33854 ft 409 kts 220°
2026-04-30 21:21 38.07806 -75.76081 33857 ft 409 kts 220°
2026-04-30 21:22 38.03098 -75.80158 33865 ft 410 kts 220°
2026-04-30 21:23 37.95970 -75.86319 33870 ft 410 kts 220°
2026-04-30 21:23 37.88900 -75.92414 33873 ft 410 kts 220°
2026-04-30 21:24 37.84180 -75.96458 33872 ft 410 kts 220°
2026-04-30 21:24 37.79461 -76.00500 33869 ft 410 kts 220°
2026-04-30 21:25 37.72424 -76.06531 33869 ft 409 kts 221°
2026-04-30 21:26 37.65357 -76.12590 33870 ft 410 kts 221°
2026-04-30 21:27 37.57217 -76.16558 33861 ft 439 kts 194°
2026-04-30 21:27 37.51068 -76.16688 33858 ft 447 kts 189°
2026-04-30 21:28 37.41734 -76.16728 33858 ft 447 kts 190°
2026-04-30 21:29 37.32411 -76.16801 33858 ft 448 kts 190°
2026-04-30 21:30 37.16860 -76.16912 33855 ft 449 kts 191°
2026-04-30 21:31 37.01279 -76.17028 33882 ft 449 kts 191°
2026-04-30 21:32 36.91893 -76.17092 33866 ft 450 kts 191°
2026-04-30 21:32 36.85624 -76.17135 33864 ft 451 kts 192°
2026-04-30 21:33 36.76247 -76.17201 33868 ft 452 kts 192°
2026-04-30 21:34 36.69963 -76.17244 33877 ft 452 kts 192°
2026-04-30 21:34 36.60520 -76.17318 33874 ft 453 kts 192°
2026-04-30 21:35 36.54213 -76.17363 33876 ft 453 kts 192°
2026-04-30 21:35 36.47940 -76.17405 33888 ft 454 kts 193°
2026-04-30 21:36 36.41617 -76.17451 33887 ft 454 kts 193°
2026-04-30 21:37 36.32151 -76.17516 34511 ft 454 kts 192°
2026-04-30 21:37 36.28951 -76.17074 34738 ft 478 kts 175°
2026-04-30 21:37 36.25838 -76.15514 34861 ft 502 kts 161°
2026-04-30 21:37 36.22892 -76.13083 34894 ft 516 kts 150°
2026-04-30 21:38 36.20211 -76.10060 34895 ft 527 kts 141°
2026-04-30 21:38 36.17682 -76.06772 34894 ft 527 kts 141°
2026-04-30 21:38 36.12603 -76.00228 34891 ft 527 kts 141°
2026-04-30 21:39 36.07555 -75.93660 34885 ft 528 kts 141°
2026-04-30 21:39 36.02529 -75.87048 34885 ft 528 kts 141°
2026-04-30 21:40 35.97535 -75.80486 34903 ft 528 kts 141°
2026-04-30 21:40 35.92494 -75.73905 34909 ft 528 kts 141°
2026-04-30 21:41 35.87438 -75.67335 34905 ft 527 kts 141°
2026-04-30 21:41 35.82388 -75.60769 34907 ft 527 kts 141°
2026-04-30 21:42 35.77386 -75.54257 34902 ft 527 kts 141°
2026-04-30 21:42 35.72340 -75.47700 34901 ft 527 kts 141°
2026-04-30 21:43 35.67293 -75.41175 34900 ft 527 kts 141°
2026-04-30 21:43 35.62234 -75.34647 34889 ft 526 kts 141°
2026-04-30 21:44 35.57225 -75.28179 34894 ft 526 kts 141°
2026-04-30 21:44 35.52173 -75.21679 34892 ft 526 kts 141°
2026-04-30 21:45 35.47120 -75.15191 34896 ft 526 kts 141°
2026-04-30 21:45 35.42097 -75.08761 34886 ft 525 kts 141°
2026-04-30 21:46 35.37041 -75.02301 34892 ft 525 kts 141°
2026-04-30 21:46 35.31993 -74.95854 34892 ft 525 kts 141°
2026-04-30 21:47 35.26947 -74.89408 34885 ft 524 kts 141°
2026-04-30 21:47 35.21898 -74.82986 34884 ft 523 kts 141°
2026-04-30 21:48 35.16883 -74.76622 34880 ft 523 kts 141°
2026-04-30 21:48 35.11832 -74.70232 34872 ft 522 kts 141°
2026-04-30 21:49 35.06790 -74.63844 34872 ft 522 kts 141°
2026-04-30 21:49 35.01746 -74.57472 34862 ft 522 kts 142°
2026-04-30 21:50 34.96734 -74.51159 34867 ft 521 kts 142°
2026-04-30 21:50 34.91689 -74.44832 34862 ft 521 kts 142°
2026-04-30 21:51 34.86644 -74.38501 34856 ft 521 kts 142°
2026-04-30 21:51 34.81600 -74.32177 34858 ft 520 kts 142°
2026-04-30 21:52 34.76558 -74.25859 34853 ft 520 kts 142°
2026-04-30 21:52 34.71544 -74.19594 34852 ft 520 kts 142°
2026-04-30 21:53 34.66488 -74.13306 34850 ft 520 kts 142°
2026-04-30 21:53 34.61424 -74.07028 34848 ft 520 kts 142°
2026-04-30 21:54 34.56370 -74.00756 34847 ft 520 kts 142°
2026-04-30 21:54 34.51338 -73.94520 34847 ft 520 kts 142°
2026-04-30 21:55 34.46278 -73.88268 34849 ft 520 kts 142°
2026-04-30 21:55 34.41213 -73.82016 34850 ft 519 kts 144°
2026-04-30 21:56 34.38525 -73.79171 34847 ft 508 kts 153°
2026-04-30 21:56 34.35619 -73.76826 34849 ft 496 kts 161°
2026-04-30 21:56 34.32605 -73.75015 34848 ft 485 kts 169°
2026-04-30 21:56 34.29467 -73.73678 34846 ft 472 kts 176°
2026-04-30 21:57 34.23135 -73.71624 34843 ft 471 kts 176°
2026-04-30 21:57 34.16807 -73.69563 34842 ft 472 kts 176°
2026-04-30 21:58 34.10465 -73.67493 34847 ft 472 kts 176°
2026-04-30 21:58 34.04159 -73.65442 34854 ft 473 kts 176°
2026-04-30 21:59 33.97808 -73.63379 34850 ft 472 kts 176°
2026-04-30 22:00 33.88277 -73.60291 34848 ft 473 kts 175°
2026-04-30 22:00 33.78781 -73.57212 34845 ft 473 kts 175°
2026-04-30 22:01 33.72421 -73.55149 34844 ft 473 kts 175°
2026-04-30 22:01 33.66056 -73.53099 34843 ft 474 kts 175°
2026-04-30 22:02 33.59688 -73.51065 34841 ft 474 kts 175°
2026-04-30 22:02 33.53302 -73.49018 34844 ft 475 kts 175°
2026-04-30 22:03 33.46948 -73.46968 34839 ft 476 kts 174°
2026-04-30 22:03 33.40538 -73.44905 34847 ft 477 kts 174°
2026-04-30 22:04 33.34118 -73.42850 34866 ft 478 kts 175°
2026-04-30 22:05 33.24502 -73.39778 34866 ft 480 kts 175°
2026-04-30 22:05 33.18044 -73.37729 34864 ft 481 kts 174°
2026-04-30 22:06 33.11569 -73.35677 34861 ft 482 kts 174°
2026-04-30 22:06 33.01835 -73.32579 34862 ft 483 kts 174°
2026-04-30 22:07 32.95334 -73.30512 34861 ft 484 kts 174°
2026-04-30 22:07 32.88861 -73.28464 34861 ft 485 kts 174°
2026-04-30 22:08 32.82342 -73.26406 34860 ft 485 kts 174°
2026-04-30 22:08 32.75815 -73.24348 34865 ft 485 kts 174°
2026-04-30 22:09 32.69285 -73.22293 34869 ft 485 kts 174°
2026-04-30 22:09 32.62805 -73.20252 34873 ft 485 kts 174°
2026-04-30 22:10 32.56283 -73.18200 34875 ft 485 kts 173°
2026-04-30 22:10 32.49760 -73.16154 34883 ft 484 kts 174°
2026-04-30 22:11 32.39990 -73.13097 34881 ft 484 kts 173°
2026-04-30 22:12 32.33534 -73.11083 34893 ft 483 kts 173°
2026-04-30 22:12 32.27043 -73.09064 34896 ft 482 kts 173°
2026-04-30 22:13 32.20559 -73.07035 34900 ft 481 kts 173°
2026-04-30 22:13 32.14088 -73.05024 34894 ft 481 kts 173°
2026-04-30 22:14 32.07611 -73.03012 34892 ft 481 kts 173°
2026-04-30 22:14 32.01184 -73.01015 34892 ft 481 kts 172°
2026-04-30 22:15 31.94708 -72.99014 34894 ft 481 kts 172°
2026-04-30 22:15 31.88235 -72.97026 34899 ft 481 kts 172°
2026-04-30 22:16 31.81760 -72.95017 34898 ft 481 kts 172°
2026-04-30 22:17 31.68849 -72.91035 34899 ft 481 kts 172°
2026-04-30 22:17 31.59128 -72.88044 34905 ft 482 kts 172°
2026-04-30 22:18 31.49429 -72.85076 34911 ft 483 kts 172°
2026-04-30 22:19 31.39689 -72.82088 34915 ft 482 kts 172°
2026-04-30 22:20 31.29946 -72.79115 34915 ft 482 kts 172°
2026-04-30 22:20 31.20241 -72.76164 34926 ft 483 kts 172°
2026-04-30 22:21 31.13745 -72.74188 34921 ft 483 kts 172°
2026-04-30 22:21 31.08341 -72.72541 34930 ft 483 kts 172°
2026-04-30 22:22 31.01843 -72.70570 34922 ft 483 kts 171°
2026-04-30 22:22 30.94282 -72.68283 34935 ft 483 kts 171°
2026-04-30 22:23 30.87783 -72.66319 34936 ft 482 kts 171°
2026-04-30 22:23 30.82380 -72.64690 34943 ft 482 kts 171°
2026-04-30 22:24 30.75892 -72.62734 34947 ft 482 kts 171°
2026-04-30 22:24 30.68354 -72.60459 34947 ft 481 kts 171°
2026-04-30 22:25 30.61880 -72.58501 34944 ft 481 kts 171°
2026-04-30 22:25 30.56497 -72.56881 34947 ft 480 kts 171°
2026-04-30 22:26 30.46801 -72.53985 34950 ft 479 kts 171°
2026-04-30 22:27 30.40342 -72.52060 34943 ft 479 kts 170°
2026-04-30 22:27 30.30671 -72.49158 34945 ft 478 kts 170°
2026-04-30 22:28 30.21051 -72.46308 34950 ft 478 kts 170°
2026-04-30 22:29 30.08167 -72.42481 34949 ft 478 kts 170°
2026-04-30 22:31 29.85674 -72.35928 34952 ft 477 kts 170°
2026-04-30 22:32 29.69635 -72.31273 34956 ft 477 kts 170°
2026-04-30 22:33 29.53582 -72.26624 34961 ft 476 kts 170°
2026-04-30 22:35 29.41276 -72.23071 34963 ft 476 kts 170°
2026-04-30 22:36 29.27090 -72.18986 34976 ft 476 kts 169°
2026-04-30 22:37 29.14304 -72.15296 34983 ft 475 kts 169°
2026-04-30 22:38 29.01479 -72.11629 34986 ft 475 kts 169°
2026-04-30 22:39 28.91870 -72.08885 34986 ft 474 kts 169°
2026-04-30 22:40 28.72717 -72.03419 34992 ft 474 kts 169°
2026-04-30 22:41 28.56784 -71.98902 34993 ft 473 kts 169°
2026-04-30 22:43 28.37648 -71.93472 34998 ft 472 kts 169°
2026-04-30 22:44 28.24950 -71.89896 35003 ft 471 kts 168°
2026-04-30 22:45 28.05881 -71.84536 35001 ft 470 kts 168°
2026-04-30 22:47 27.86900 -71.79211 35001 ft 469 kts 168°
2026-04-30 22:48 27.74273 -71.75684 34997 ft 469 kts 168°
2026-04-30 22:49 27.55297 -71.70395 35008 ft 468 kts 167°
2026-04-30 22:51 27.36417 -71.65146 35014 ft 466 kts 167°
2026-04-30 22:52 27.26975 -71.62540 35013 ft 466 kts 167°
2026-04-30 22:53 27.14448 -71.59069 35017 ft 465 kts 167°
2026-04-30 22:53 27.05031 -71.56481 35017 ft 464 kts 167°
2026-04-30 22:55 26.89401 -71.52177 35015 ft 463 kts 167°
2026-04-30 22:56 26.76893 -71.48742 35020 ft 462 kts 167°
2026-04-30 22:57 26.61320 -71.44487 35018 ft 462 kts 167°
2026-04-30 22:58 26.48838 -71.41080 35021 ft 462 kts 168°
2026-04-30 22:59 26.30196 -71.35998 35018 ft 461 kts 168°